Simultaneous Nadir Overpasses (SNOs) Predictions

Prediction of SNOs between GOES-17 and LANDSAT-8 Satellite Orbit:

Table of predicted SNOs for the next 14.0 days since TLE Epoch: 9/5/2025
Index Date Time (GOES-17) GOES-17 Lat,Lon LANDSAT-8 Lat,Lon Distance(km) Time Diff (sec)
1 09/07/2025 04:14:06 -0.15, -89.48 -0.28, -90.04 64.44 80
2 09/09/2025 03:59:15 -0.14, -89.48 0.37, -87.09 272.03 80
3 09/09/2025 16:23:10 0.16, -89.53 0.75, -92.24 308.46 80
4 09/11/2025 16:08:19 0.15, -89.53 0.08, -89.28 28.41 80
5 09/13/2025 15:56:07 0.16, -89.53 -0.55, -86.32 365.13 80
6 09/14/2025 04:20:10 -0.18, -89.48 -0.61, -91.50 229.84 80
7 09/16/2025 04:05:18 -0.18, -89.48 0.05, -88.54 107.41 80
8 09/16/2025 16:29:13 0.20, -89.53 1.06, -93.70 472.94 80
9 09/18/2025 03:53:05 -0.18, -89.49 0.67, -85.58 445.34 80
10 09/18/2025 16:17:00 0.19, -89.54 0.44, -90.73 134.72 80
